Location: São Paulo
(23.5507°S, 46.6334°W)
Time: 12:30:28
(UTC-03:00)

A-11 Canister half - Pass Details

Date: 14 February 2026
Orbit: 1525 x 1683 km, 47.3° (Epoch: 8 March)

Event Time Altitude Azimuth Distance (km) Brightness Sun altitude
Exits shadow 02:34:04 31° 51° (NE) 2,589 10.1 -41.0°
Maximum altitude 02:34:19 31° 54° (NE) 2,589 10.1 -41.0°
Drops below altitude 10° 02:42:45 10° 111° (ESE) 3,940 11.7 -39.6°
Sets 02:46:25 0° 121° (ESE) 4,943 12.5 -39.0°
